[[{"header":{"parameterUnit":"m.s-1","parameterCategory":1,"la1":30.2991,"la2":30.254,"lo1":-89.0895,"lo2":-89.0444,"dy":0.0017,"dx":0.0017,"nx":28,"ny":28,"refTime":"2024-05-04T21:00:00:Z","depth":0,"parameterNumber":2,"parameterNumberName":"U-component_of_WINDS"},"data":[0,0,0,0,0,0,0,0,0,0,0,0,0,0,0,0,0,0,0,0,0,0,0,0,0,0,0,0,0,0,0,0,0,0,0,0,0,0,0,0,0,0,0,0,0,0,0,0,0,0,0,0,0,0,0,0,0,0,-2.9039,-2.9039,0,-2.8954,-2.8953,-2.8952,-2.8875,-2.8874,-2.8873,-2.8873,-2.8781,-2.8779,-2.8778,0,0,0,0,0,0,0,0,0,0,0,0,0,-2.9134,-2.9132,-2.904,-2.9039,-2.9037,-2.8954,-2.8953,-2.8952,-2.8875,-2.8874,-2.8873,-2.8872,-2.8781,-2.878,-2.8778,0,0,0,0,0,0,0,0,0,0,0,0,0,-2.9075,-2.9132,-2.904,-2.8989,-2.8984,-2.8954,-2.8953,-2.8951,-2.8876,-2.8874,-2.8873,-2.8872,-2.8782,-2.878,-2.8777,-2.8789,0,0,-2.877,-2.8769,0,0,0,0,0,0,0,0,-2.9078,-2.9071,-2.8998,-2.8993,-2.8987,-2.8924,-2.8952,-2.8897,-2.8876,-2.8917,-2.8873,-2.8871,-2.8829,-2.8823,-2.881,-2.8785,-2.8781,-2.877,-2.8768,-2.8767,-2.8767,0,0,0,0,0,0,0,-2.9082,-2.9075,-2.9005,-2.8997,-2.899,-2.897,-2.896,-2.8942,-2.8881,-2.8913,-2.8907,-2.8898,-2.8826,-2.8812,-2.8807,-2.878,-2.877,-2.8768,-2.8766,-2.8765,-2.876,-2.8761,0,0,0,0,0,0,-2.9095,-2.9079,-2.9008,-2.9003,-2.903,-2.8969,-2.8958,-2.8945,-2.8881,-2.887,-2.89,-2.8895,-2.8817,-2.881,-2.8803,-2.8812,-2.8767,-2.8765,-2.8764,-2.8759,-2.876,-2.8762,0,0,0,0,0,0,-2.9097,-2.9089,-2.9012,-2.9039,-2.9028,-2.8969,-2.8955,-2.8944,-2.893,-2.8871,-2.886,-2.8897,-2.8816,-2.8807,-2.8794,-2.8808,-2.8764,-2.8762,-2.8757,-2.8759,-2.8761,-2.883,0,0,0,0,0,0,-2.91,-2.9091,-2.9095,-2.904,-2.9027,-2.9004,-2.8956,-2.8944,-2.8927,-2.892,-2.8866,-2.8855,-2.8814,-2.8798,-2.8791,-2.8804,-2.876,-2.8756,-2.8758,-2.876,-2.8826,-2.8834,-2.8841,0,0,0,0,0,-2.9104,-2.9117,-2.9096,-2.9088,-2.9031,-2.9005,-2.8998,-2.8951,-2.8929,-2.8932,-2.8894,-2.8857,-2.8808,-2.8797,-2.8789,-2.8801,-2.8754,-2.8757,-2.876,-2.8823,-2.8833,-2.8841,0,0,0,0,0,0,-2.9174,-2.9109,-2.9084,-2.9081,-2.905,-2.8992,-2.8995,-2.8963,-2.8936,-2.893,-2.8873,-2.8861,-2.8854,-2.8826,-2.8815,-2.8809,-2.8776,-2.8778,-2.8827,-2.8835,-2.8843,-2.8848,-2.8758,0,0,0,0,0,-2.9189,-2.9175,-2.9119,-2.9121,-2.9106,-2.9054,-2.9041,-2.9008,-2.8972,-2.8958,-2.8919,-2.8885,-2.8862,-2.8848,-2.8823,-2.8823,-2.8809,-2.8828,-2.8835,-2.8842,-2.8843,-2.8839,-2.8846,-2.8771,-2.8771,-2.8771,0,0,-2.922,-2.9183,-2.9177,-2.9134,-2.9106,-2.909,-2.9043,-2.9029,-2.9017,-2.8956,-2.894,-2.8911,-2.8869,-2.8863,-2.8858,-2.8839,-2.8861,-2.8845,-2.8851,-2.8848,-2.8843,-2.885,-2.8857,-2.8773,-2.8773,-2.8773,0,0,-2.9268,-2.924,-2.9238,-2.9211,-2.9169,-2.9135,-2.9135,-2.9083,-2.9061,-2.9046,-2.9,-2.8984,-2.8946,-2.8917,-2.8898,-2.8938,-2.8902,-2.8932,-2.8969,-2.8967,-2.8972,-2.8977,-2.8989,-2.8995,-2.8934,-2.8934,-2.8934,0,-2.9311,-2.9287,-2.9241,-2.9229,-2.9211,-2.9158,-2.9155,-2.9131,-2.9083,-2.9071,-2.9052,-2.9003,-2.8971,-2.8956,-2.8966,-2.8953,-2.895,-2.8936,-2.8976,-2.898,-2.8984,-2.8995,-2.9,-2.8937,-2.8937,-2.8937,-2.8936,0,-2.9341,-2.9326,-2.9329,-2.9286,-2.9269,-2.9262,-2.9213,-2.9201,-2.917,-2.9138,-2.9122,-2.9083,-2.9049,-2.9044,-2.9013,-2.9025,-2.9014,-2.8987,-2.8952,-2.8996,-2.9005,-2.9009,-2.8943,-2.8941,-2.894,-2.8939,0,0,-2.9428,-2.9361,-2.9362,-2.9342,-2.9293,-2.9279,-2.927,-2.9239,-2.9229,-2.9199,-2.9188,-2.9158,-2.9132,-2.911,-2.9076,-2.9075,-2.9106,-2.9047,-2.9045,-2.9057,-2.9115,-2.9134,-2.914,-2.9084,-2.9085,-2.9085,-2.9117,0,-2.9466,-2.9447,-2.9405,-2.9398,-2.9383,-2.9333,-2.9324,-2.9293,-2.9263,-2.9244,-2.921,-2.9189,-2.9158,-2.9144,-2.9141,-2.9104,-2.9117,-2.9101,-2.9071,-2.9071,-2.908,-2.9145,-2.9165,-2.9197,-2.9121,-2.9122,-2.9122,0,-2.9507,-2.9481,-2.9473,-2.9425,-2.9417,-2.9411,-2.9378,-2.9362,-2.9325,-2.9303,-2.9281,-2.9244,-2.923,-2.9201,-2.918,-2.917,-2.9156,-2.9136,-2.9136,-2.9129,-2.9097,-2.9137,-2.9206,-2.921,-2.9128,-2.9127,-2.9127,0,-2.9568,-2.9531,-2.9521,-2.9506,-2.9451,-2.9447,-2.9424,-2.9386,-2.937,-2.9342,-2.933,-2.9301,-2.9284,-2.9262,-2.9217,-2.9201,-2.9201,-2.9168,-2.9181,-2.9182,-2.918,-2.918,-2.9246,-2.9176,-2.9176,-2.9176,-2.9176,0,-2.9613,-2.9609,-2.9548,-2.9542,-2.9537,-2.9489,-2.9485,-2.9457,-2.9424,-2.941,-2.9366,-2.9354,-2.9298,-2.9279,-2.9245,-2.9232,-2.9225,-2.9206,-2.9196,-2.9208,-2.921,-2.9196,-2.9191,-2.9177,-2.9177,-2.9177,-2.9177,0,-2.9679,-2.9638,-2.9624,-2.9574,-2.9561,-2.9559,-2.9515,-2.9507,-2.9475,-2.9459,-2.9452,-2.9401,-2.9377,-2.9332,-2.9295,-2.9272,-2.9265,-2.9251,-2.9278,-2.9271,-2.9285,-2.9284,-2.9341,-2.9345,-2.9276,-2.9277,-2.9278,0,-2.9708,-2.9705,-2.9655,-2.9643,-2.9622,-2.9604,-2.9588,-2.9542,-2.9526,-2.9485,-2.9481,-2.9454,-2.9429,-2.9393,-2.9352,-2.9323,-2.9306,-2.9328,-2.9301,-2.9313,-2.9303,-2.9303,-2.9301,-2.9333,-2.9334,-2.9335,-2.9335,0,-2.9765,-2.9745,-2.9724,-2.9697,-2.9679,-2.9654,-2.9627,-2.962,-2.9567,-2.9552,-2.9528,-2.9509,-2.9472,-2.9445,-2.941,-2.9385,-2.9351,-2.9345,-2.9346,-2.9356,-2.9371,-2.9361,-2.9292,-2.9343,-2.9342,-2.9342,-2.9341,-2.9341,-2.9812,-2.9806,-2.977,-2.9748,-2.9724,-2.97,-2.9689,-2.9657,-2.9636,-2.9603,-2.9577,-2.9554,-2.9518,-2.9469,-2.9445,-2.9426,-2.941,-2.9412,-2.9412,-2.9412,-2.9416,-2.9378,-2.942,-2.942,-2.9419,-2.9419,-2.9419,0,-2.9864,-2.9839,-2.982,-2.9784,-2.9767,-2.9739,-2.9708,-2.9695,-2.9676,-2.9645,-2.9623,-2.9594,-2.9568,-2.9527,-2.9497,-2.9489,-2.9473,-2.9483,-2.9481,-2.9475,-2.9433,-2.9434,-2.9496,-2.9496,-2.9496,-2.9496,-2.9496,-2.9496,-2.9889,-2.9877,-2.9854,-2.983,-2.9804,-2.9782,-2.9767,-2.9744,-2.972,-2.9691,-2.9669,-2.9643,-2.9608,-2.9575,-2.9549,-2.9538,-2.9527,-2.9542,-2.9525,-2.9486,-2.9478,-2.9471,-2.9472,-2.9541,-2.9541,-2.9568,-2.9568,-2.9569]},{"header":{"parameterUnit":"m.s-1","parameterCategory":1,"la1":30.2991,"la2":30.254,"lo1":-89.0895,"lo2":-89.0444,"dy":0.0017,"dx":0.0017,"nx":28,"ny":28,"refTime":"2024-05-04T21:00:00:Z","depth":0,"parameterNumber":3,"parameterNumberName":"V-component_of_WINDS"},"data":[0,0,0,0,0,0,0,0,0,0,0,0,0,0,0,0,0,0,0,0,0,0,0,0,0,0,0,0,0,0,0,0,0,0,0,0,0,0,0,0,0,0,0,0,0,0,0,0,0,0,0,0,0,0,0,0,0,0,4.8863,4.8863,0,4.8837,4.8837,4.8837,4.88,4.8799,4.8798,4.8798,4.8767,4.8767,4.8767,0,0,0,0,0,0,0,0,0,0,0,0,0,4.888,4.888,4.8864,4.8863,4.8863,4.8837,4.8837,4.8837,4.88,4.8799,4.8798,4.8798,4.8768,4.8767,4.8767,0,0,0,0,0,0,0,0,0,0,0,0,0,4.8865,4.888,4.8864,4.8842,4.8839,4.8837,4.8837,4.8836,4.88,4.8799,4.8798,4.8797,4.8768,4.8767,4.8767,4.8783,0,0,4.8766,4.8766,0,0,0,0,0,0,0,0,4.8866,4.8865,4.8845,4.8843,4.8841,4.8821,4.8832,4.8818,4.88,4.8815,4.8798,4.8797,4.8786,4.8784,4.8781,4.8782,4.878,4.8766,4.8766,4.8765,4.8765,0,0,0,0,0,0,0,4.8867,4.8866,4.8853,4.8845,4.8842,4.8832,4.8829,4.8829,4.8806,4.8813,4.8811,4.8808,4.8784,4.8781,4.878,4.878,4.8766,4.8765,4.8765,4.8765,4.8796,4.8797,0,0,0,0,0,0,4.8872,4.8867,4.8854,4.8852,4.8852,4.8833,4.8829,4.8828,4.8806,4.8801,4.8809,4.8807,4.8782,4.878,4.8779,4.8798,4.8765,4.8765,4.8765,4.8795,4.8796,4.8797,0,0,0,0,0,0,4.8872,4.8871,4.8855,4.8859,4.8856,4.8834,4.8832,4.8828,4.8825,4.8802,4.8798,4.8811,4.8781,4.8779,4.8783,4.8797,4.8765,4.8765,4.8794,4.8795,4.8797,4.8837,0,0,0,0,0,0,4.8873,4.8872,4.8878,4.8859,4.8856,4.8861,4.8833,4.8828,4.8825,4.8821,4.8802,4.8798,4.8781,4.8784,4.8783,4.8796,4.8764,4.8793,4.8795,4.8796,4.8834,4.884,4.8844,0,0,0,0,0,4.8874,4.8889,4.8878,4.8877,4.8863,4.8861,4.8859,4.884,4.8826,4.8832,4.8818,4.8799,4.8795,4.8785,4.8783,4.8796,4.8792,4.8794,4.8796,4.8832,4.8839,4.8844,0,0,0,0,0,0,4.8907,4.8886,4.8874,4.8883,4.8875,4.8855,4.8862,4.8847,4.8841,4.8838,4.8812,4.8808,4.8816,4.8806,4.8795,4.8812,4.8791,4.8793,4.8819,4.8824,4.8829,4.8832,4.8764,0,0,0,0,0,4.8916,4.8917,4.8898,4.8908,4.8904,4.8884,4.8882,4.8869,4.8858,4.8854,4.884,4.883,4.8827,4.8825,4.882,4.8833,4.8829,4.8841,4.8846,4.885,4.8852,4.8861,4.8866,4.8805,4.8805,4.8805,0,0,4.8933,4.8922,4.8924,4.8914,4.8906,4.8908,4.8881,4.8883,4.8884,4.8853,4.8858,4.8847,4.8834,4.8844,4.8847,4.8835,4.8869,4.8853,4.8856,4.8856,4.8864,4.8869,4.8875,4.8807,4.8806,4.8806,0,0,4.8967,4.8958,4.8966,4.8959,4.8948,4.8935,4.8937,4.8921,4.8913,4.8917,4.8895,4.8895,4.889,4.8883,4.8878,4.8912,4.8895,4.8911,4.8937,4.8945,4.895,4.8954,4.8968,4.8973,4.8913,4.8913,4.8913,0,4.899,4.8992,4.8972,4.8977,4.8974,4.8949,4.8958,4.8951,4.8939,4.8937,4.8925,4.892,4.8909,4.8917,4.8926,4.8922,4.8925,4.8913,4.8951,4.8955,4.8959,4.8972,4.8977,4.8915,4.8915,4.8915,4.8915,0,4.9022,4.9024,4.9032,4.9024,4.9021,4.9028,4.9009,4.901,4.8996,4.8985,4.899,4.8977,4.8971,4.8971,4.8957,4.8978,4.8972,4.8956,4.8934,4.8967,4.8979,4.8984,4.8918,4.8918,4.8917,4.8916,0,0,4.9074,4.9057,4.906,4.9057,4.9044,4.9045,4.9051,4.9046,4.9048,4.904,4.9045,4.9043,4.9029,4.9024,4.9009,4.9016,4.9046,4.8999,4.8998,4.901,4.9071,4.9085,4.9091,4.9035,4.9036,4.9036,4.9073,0,4.9106,4.9117,4.9101,4.9115,4.9118,4.9095,4.91,4.9093,4.9082,4.9083,4.9071,4.907,4.9051,4.9048,4.9054,4.9041,4.9059,4.9038,4.904,4.904,4.9045,4.9097,4.911,4.9145,4.9077,4.9078,4.9079,0,4.9144,4.9142,4.9157,4.9146,4.9146,4.9152,4.9148,4.9148,4.914,4.9132,4.9128,4.9111,4.9117,4.9096,4.9104,4.909,4.909,4.9084,4.9085,4.9085,4.9062,4.91,4.9156,4.9162,4.9085,4.9085,4.9084,0,4.9184,4.9184,4.9194,4.9191,4.9177,4.9182,4.9176,4.9167,4.9166,4.9163,4.9162,4.9158,4.9157,4.9154,4.9137,4.9123,4.9148,4.9125,4.9142,4.9143,4.9149,4.9149,4.9208,4.9147,4.9147,4.9147,4.9146,0,4.9222,4.9233,4.9212,4.9218,4.923,4.9211,4.9223,4.9214,4.9207,4.9211,4.919,4.9194,4.9171,4.9173,4.916,4.917,4.9168,4.9162,4.9159,4.9165,4.9166,4.9165,4.9163,4.9148,4.9148,4.9147,4.9147,0,4.9268,4.9254,4.9264,4.9251,4.9248,4.9258,4.9247,4.9252,4.9241,4.9247,4.9247,4.923,4.9231,4.9214,4.9212,4.9203,4.9219,4.9211,4.9223,4.9221,4.924,4.9239,4.9301,4.9309,4.9242,4.9242,4.9243,0,4.9294,4.9303,4.9292,4.9294,4.929,4.9293,4.9293,4.9275,4.9276,4.9269,4.9275,4.9275,4.9275,4.9278,4.9265,4.9264,4.9256,4.9278,4.9255,4.9262,4.9258,4.9259,4.926,4.9283,4.9283,4.9284,4.9285,0,4.9343,4.9336,4.9338,4.9338,4.9339,4.9337,4.9334,4.9337,4.9318,4.932,4.9322,4.9322,4.9321,4.9322,4.9318,4.9312,4.9296,4.9292,4.9296,4.9303,4.9311,4.9309,4.9237,4.9291,4.929,4.929,4.9289,4.9289,4.9381,4.9388,4.9383,4.9385,4.9382,4.938,4.9386,4.9377,4.9379,4.9378,4.9366,4.9371,4.9364,4.9358,4.9354,4.9358,4.9347,4.9352,4.9354,4.9356,4.9361,4.931,4.9356,4.9356,4.9356,4.9356,4.9356,0,4.943,4.9426,4.9429,4.9427,4.943,4.9415,4.9412,4.9415,4.942,4.9415,4.9416,4.942,4.9421,4.9409,4.9409,4.9415,4.9407,4.9415,4.9415,4.9415,4.9369,4.9367,4.9422,4.9422,4.9422,4.9422,4.9422,4.9422,4.9456,4.9468,4.9461,4.9472,4.9467,4.9474,4.9473,4.9472,4.9469,4.9475,4.9476,4.9469,4.9462,4.9462,4.9463,4.9459,4.9461,4.9472,4.9466,4.9424,4.9418,4.9411,4.9409,4.9472,4.9472,4.9511,4.9511,4.9512]}]]